Time,TemperatureF,DewpointF,PressureIn,WindDirection,WindDirectionDegrees,WindSpeedMPH,WindSpeedGustMPH,Humidity,HourlyPrecipIn,Conditions,Clouds,dailyrainin,SoftwareType,DateUTC
2013-10-23 00:08:00,71.9,70.0,29.83,West,273,0.0,2.0,94,0.00,,,0.00,weatherlink.com 1.10,2013-10-23 04:08:00,
2013-10-23 00:23:00,71.9,71.0,29.82,West,275,0.0,1.0,95,0.00,,,0.00,weatherlink.com 1.10,2013-10-23 04:23:00,
2013-10-23 00:38:00,71.8,70.0,29.82,West,275,0.0,0.0,95,0.00,,,0.00,weatherlink.com 1.10,2013-10-23 04:38:00,
2013-10-23 00:53:00,71.7,70.0,29.82,West,275,0.0,1.0,95,0.00,,,0.00,weatherlink.com 1.10,2013-10-23 04:53:00,
2013-10-23 01:08:00,71.6,70.0,29.82,West,275,0.0,1.0,95,0.01,,,0.01,weatherlink.com 1.10,2013-10-23 05:08:00,
2013-10-23 01:23:00,71.5,70.0,29.82,West,274,0.0,2.0,95,0.01,,,0.01,weatherlink.com 1.10,2013-10-23 05:23:00,
2013-10-23 01:38:00,71.5,70.0,29.82,West,274,0.0,2.0,95,0.01,,,0.01,weatherlink.com 1.10,2013-10-23 05:38:00,
2013-10-23 01:53:00,71.5,70.0,29.82,West,274,0.0,1.0,95,0.01,,,0.01,weatherlink.com 1.10,2013-10-23 05:53:00,
2013-10-23 02:08:00,71.6,70.0,29.82,West,274,1.0,2.0,96,0.00,,,0.01,weatherlink.com 1.10,2013-10-23 06:08:00,
2013-10-23 02:23:00,71.6,70.0,29.82,West,273,0.0,1.0,96,0.00,,,0.01,weatherlink.com 1.10,2013-10-23 06:23:00,
2013-10-23 02:38:00,71.7,71.0,29.82,West,273,0.0,3.0,96,0.00,,,0.01,weatherlink.com 1.10,2013-10-23 06:38:00,
2013-10-23 02:53:00,71.8,71.0,29.82,WSW,256,0.0,4.0,96,0.00,,,0.01,weatherlink.com 1.10,2013-10-23 06:53:00,
2013-10-23 03:08:00,71.7,71.0,29.81,WSW,250,0.0,4.0,96,0.00,,,0.01,weatherlink.com 1.10,2013-10-23 07:08:00,
2013-10-23 03:23:00,71.6,70.0,29.81,West,259,1.0,2.0,96,0.00,,,0.01,weatherlink.com 1.10,2013-10-23 07:23:00,
2013-10-23 03:38:00,71.5,70.0,29.81,West,259,1.0,2.0,96,0.00,,,0.01,weatherlink.com 1.10,2013-10-23 07:38:00,
2013-10-23 03:53:00,71.4,70.0,29.81,West,259,0.0,1.0,96,0.00,,,0.01,weatherlink.com 1.10,2013-10-23 07:53:00,
2013-10-23 04:08:00,71.3,70.0,29.81,West,259,1.0,1.0,96,0.00,,,0.01,weatherlink.com 1.10,2013-10-23 08:08:00,
2013-10-23 04:23:00,71.2,70.0,29.80,West,259,0.0,2.0,96,0.00,,,0.01,weatherlink.com 1.10,2013-10-23 08:23:00,
2013-10-23 04:38:00,71.2,70.0,29.81,West,259,0.0,3.0,97,0.00,,,0.01,weatherlink.com 1.10,2013-10-23 08:38:00,
2013-10-23 04:53:00,71.3,70.0,29.81,West,259,0.0,2.0,97,0.00,,,0.01,weatherlink.com 1.10,2013-10-23 08:53:00,
2013-10-23 05:08:00,71.5,71.0,29.81,West,259,0.0,2.0,97,0.00,,,0.01,weatherlink.com 1.10,2013-10-23 09:08:00,
2013-10-23 05:23:00,71.6,71.0,29.81,West,259,0.0,1.0,97,0.00,,,0.01,weatherlink.com 1.10,2013-10-23 09:23:00,
2013-10-23 05:38:00,71.7,71.0,29.82,West,259,0.0,2.0,97,0.00,,,0.01,weatherlink.com 1.10,2013-10-23 09:38:00,
2013-10-23 05:53:00,71.8,71.0,29.82,West,259,0.0,1.0,97,0.00,,,0.01,weatherlink.com 1.10,2013-10-23 09:53:00,
2013-10-23 06:08:00,71.9,71.0,29.83,West,259,1.0,3.0,97,0.00,,,0.01,weatherlink.com 1.10,2013-10-23 10:08:00,
2013-10-23 06:23:00,72.2,71.0,29.83,WSW,254,1.0,3.0,97,0.00,,,0.01,weatherlink.com 1.10,2013-10-23 10:23:00,
2013-10-23 06:38:00,72.2,71.0,29.84,NW,314,0.0,5.0,97,0.00,,,0.01,weatherlink.com 1.10,2013-10-23 10:38:00,
2013-10-23 06:53:00,71.3,70.0,29.84,NE,48,1.0,3.0,97,0.00,,,0.01,weatherlink.com 1.10,2013-10-23 10:53:00,
2013-10-23 07:08:00,71.0,70.0,29.84,NE,48,0.0,1.0,97,0.00,,,0.01,weatherlink.com 1.10,2013-10-23 11:08:00,
2013-10-23 07:23:00,71.0,70.0,29.85,NE,48,0.0,3.0,97,0.00,,,0.01,weatherlink.com 1.10,2013-10-23 11:23:00,
2013-10-23 07:38:00,70.8,70.0,29.85,NE,48,0.0,2.0,97,0.00,,,0.01,weatherlink.com 1.10,2013-10-23 11:38:00,
2013-10-23 07:53:00,70.7,70.0,29.86,NE,48,0.0,1.0,97,0.00,,,0.01,weatherlink.com 1.10,2013-10-23 11:53:00,
2013-10-23 08:08:00,70.8,70.0,29.86,NNW,334,1.0,3.0,97,0.00,,,0.01,weatherlink.com 1.10,2013-10-23 12:08:00,
2013-10-23 08:23:00,71.3,70.0,29.86,NW,308,0.0,3.0,97,0.00,,,0.01,weatherlink.com 1.10,2013-10-23 12:23:00,
2013-10-23 08:38:00,72.2,71.0,29.87,NNW,338,2.0,2.0,96,0.00,,,0.01,weatherlink.com 1.10,2013-10-23 12:38:00,
2013-10-23 08:53:00,72.7,72.0,29.88,WNW,293,1.0,2.0,96,0.00,,,0.01,weatherlink.com 1.10,2013-10-23 12:53:00,
2013-10-23 09:08:00,72.6,71.0,29.88,NW,312,0.0,5.0,95,0.00,,,0.01,weatherlink.com 1.10,2013-10-23 13:08:00,
2013-10-23 09:23:00,72.8,71.0,29.89,WNW,292,1.0,5.0,95,0.00,,,0.01,weatherlink.com 1.10,2013-10-23 13:23:00,
2013-10-23 09:39:00,73.0,71.0,29.89,NNE,17,4.0,7.0,93,0.00,,,0.01,weatherlink.com 1.10,2013-10-23 13:39:00,
2013-10-23 09:54:00,73.3,71.0,29.90,NE,41,1.0,7.0,92,0.00,,,0.01,weatherlink.com 1.10,2013-10-23 13:54:00,
2013-10-23 10:09:00,73.9,71.0,29.90,West,281,3.0,8.0,91,0.00,,,0.01,weatherlink.com 1.10,2013-10-23 14:09:00,
2013-10-23 10:24:00,73.8,70.0,29.90,NW,317,2.0,7.0,89,0.00,,,0.01,weatherlink.com 1.10,2013-10-23 14:24:00,
2013-10-23 10:39:00,74.0,70.0,29.90,WNW,303,3.0,7.0,87,0.00,,,0.01,weatherlink.com 1.10,2013-10-23 14:39:00,
2013-10-23 10:54:00,74.0,69.0,29.91,NNW,336,1.0,9.0,85,0.00,,,0.01,weatherlink.com 1.10,2013-10-23 14:54:00,
2013-10-23 11:24:00,74.4,69.0,29.91,NNW,331,7.0,10.0,84,0.00,,,0.01,weatherlink.com 1.10,2013-10-23 15:24:00,
2013-10-23 11:39:00,75.5,69.0,29.91,West,265,2.0,8.0,81,0.00,,,0.01,weatherlink.com 1.10,2013-10-23 15:39:00,
2013-10-23 11:54:00,76.4,69.0,29.91,NE,43,4.0,7.0,78,0.00,,,0.01,weatherlink.com 1.10,2013-10-23 15:54:00,
2013-10-23 12:09:00,77.8,69.0,29.91,NW,310,3.0,7.0,74,0.00,,,0.01,weatherlink.com 1.10,2013-10-23 16:09:00,
2013-10-23 12:24:00,77.8,68.0,29.90,NW,322,4.0,8.0,72,0.00,,,0.01,weatherlink.com 1.10,2013-10-23 16:24:00,
2013-10-23 12:39:00,77.3,68.0,29.90,NE,34,2.0,7.0,72,0.00,,,0.01,weatherlink.com 1.10,2013-10-23 16:39:00,
2013-10-23 12:54:00,77.4,68.0,29.89,NW,321,1.0,7.0,73,0.00,,,0.01,weatherlink.com 1.10,2013-10-23 16:54:00,
2013-10-23 13:09:00,77.2,67.0,29.89,NW,323,2.0,6.0,71,0.00,,,0.01,weatherlink.com 1.10,2013-10-23 17:09:00,
2013-10-23 13:24:00,77.4,67.0,29.89,North,5,1.0,8.0,70,0.00,,,0.01,weatherlink.com 1.10,2013-10-23 17:24:00,
2013-10-23 13:39:00,77.6,66.0,29.89,NNE,19,3.0,8.0,68,0.00,,,0.01,weatherlink.com 1.10,2013-10-23 17:39:00,
2013-10-23 13:54:00,78.2,67.0,29.88,North,9,2.0,7.0,68,0.00,,,0.01,weatherlink.com 1.10,2013-10-23 17:54:00,
2013-10-23 14:09:00,78.1,67.0,29.87,WNW,289,1.0,6.0,68,0.00,,,0.01,weatherlink.com 1.10,2013-10-23 18:09:00,
2013-10-23 14:24:00,78.1,65.0,29.87,North,5,5.0,10.0,64,0.00,,,0.01,weatherlink.com 1.10,2013-10-23 18:24:00,
2013-10-23 14:39:00,78.3,65.0,29.86,North,350,6.0,7.0,64,0.00,,,0.01,weatherlink.com 1.10,2013-10-23 18:39:00,
2013-10-23 14:54:00,80.0,65.0,29.86,NNW,348,5.0,7.0,61,0.00,,,0.01,weatherlink.com 1.10,2013-10-23 18:54:00,
2013-10-23 15:09:00,80.5,66.0,29.86,NW,313,0.0,6.0,61,0.00,,,0.01,weatherlink.com 1.10,2013-10-23 19:09:00,
2013-10-23 15:24:00,80.9,66.0,29.86,NNE,17,3.0,5.0,61,0.00,,,0.01,weatherlink.com 1.10,2013-10-23 19:24:00,
2013-10-23 15:39:00,79.8,65.0,29.86,NNW,329,2.0,5.0,61,0.00,,,0.01,weatherlink.com 1.10,2013-10-23 19:39:00,
2013-10-23 15:54:00,81.4,65.0,29.86,NW,316,2.0,7.0,57,0.00,,,0.01,weatherlink.com 1.10,2013-10-23 19:54:00,
2013-10-23 16:09:00,82.3,63.0,29.86,NW,323,4.0,7.0,53,0.00,,,0.01,weatherlink.com 1.10,2013-10-23 20:09:00,
2013-10-23 16:24:00,82.2,63.0,29.87,NNW,347,3.0,6.0,52,0.00,,,0.01,weatherlink.com 1.10,2013-10-23 20:24:00,
2013-10-23 16:39:00,82.2,62.0,29.87,WNW,289,2.0,8.0,51,0.00,,,0.01,weatherlink.com 1.10,2013-10-23 20:39:00,
2013-10-23 16:54:00,82.2,62.0,29.87,NE,46,0.0,6.0,50,0.00,,,0.01,weatherlink.com 1.10,2013-10-23 20:54:00,
2013-10-23 17:09:00,81.1,60.0,29.87,NW,304,3.0,8.0,49,0.00,,,0.01,weatherlink.com 1.10,2013-10-23 21:09:00,
2013-10-23 17:24:00,79.1,60.0,29.87,WNW,284,0.0,4.0,52,0.00,,,0.01,weatherlink.com 1.10,2013-10-23 21:24:00,
2013-10-23 17:39:00,79.4,61.0,29.87,NNE,26,3.0,4.0,53,0.00,,,0.01,weatherlink.com 1.10,2013-10-23 21:39:00,
2013-10-23 17:54:00,79.5,61.0,29.88,NW,319,0.0,4.0,53,0.00,,,0.01,weatherlink.com 1.10,2013-10-23 21:54:00,
2013-10-23 18:09:00,78.5,61.0,29.88,NNW,333,1.0,5.0,55,0.00,,,0.01,weatherlink.com 1.10,2013-10-23 22:09:00,
2013-10-23 18:24:00,77.4,61.0,29.89,NW,312,0.0,6.0,57,0.00,,,0.01,weatherlink.com 1.10,2013-10-23 22:24:00,
2013-10-23 18:39:00,77.0,61.0,29.89,WNW,291,1.0,3.0,58,0.00,,,0.01,weatherlink.com 1.10,2013-10-23 22:39:00,
2013-10-23 18:54:00,75.9,61.0,29.90,WNW,291,1.0,1.0,61,0.00,,,0.01,weatherlink.com 1.10,2013-10-23 22:54:00,
2013-10-23 19:09:00,74.4,60.0,29.91,WNW,291,0.0,2.0,62,0.00,,,0.01,weatherlink.com 1.10,2013-10-23 23:09:00,
2013-10-23 19:24:00,72.9,60.0,29.91,West,273,0.0,6.0,64,0.00,,,0.01,weatherlink.com 1.10,2013-10-23 23:24:00,
2013-10-23 19:39:00,71.8,58.0,29.92,WNW,290,0.0,3.0,63,0.00,,,0.01,weatherlink.com 1.10,2013-10-23 23:39:00,
2013-10-23 19:54:00,70.8,58.0,29.92,NW,313,1.0,3.0,64,0.00,,,0.01,weatherlink.com 1.10,2013-10-23 23:54:00,
2013-10-23 20:09:00,70.1,58.0,29.93,WNW,303,1.0,3.0,66,0.00,,,0.01,weatherlink.com 1.10,2013-10-24 00:09:00,
2013-10-23 20:24:00,69.7,59.0,29.93,WNW,299,0.0,2.0,68,0.00,,,0.01,weatherlink.com 1.10,2013-10-24 00:24:00,
2013-10-23 20:39:00,69.1,59.0,29.93,WNW,298,1.0,3.0,69,0.00,,,0.01,weatherlink.com 1.10,2013-10-24 00:39:00,
2013-10-23 20:55:00,68.7,59.0,29.94,WNW,300,0.0,2.0,71,0.00,,,0.01,weatherlink.com 1.10,2013-10-24 00:55:00,
2013-10-23 21:10:00,68.3,59.0,29.94,WNW,293,2.0,3.0,73,0.00,,,0.01,weatherlink.com 1.10,2013-10-24 01:10:00,
2013-10-23 21:25:00,68.1,60.0,29.94,WNW,292,0.0,3.0,75,0.00,,,0.01,weatherlink.com 1.10,2013-10-24 01:25:00,
2013-10-23 21:40:00,67.9,60.0,29.95,WNW,293,0.0,1.0,76,0.00,,,0.01,weatherlink.com 1.10,2013-10-24 01:40:00,
2013-10-23 21:55:00,67.6,60.0,29.96,WNW,300,1.0,3.0,77,0.00,,,0.01,weatherlink.com 1.10,2013-10-24 01:55:00,
2013-10-23 22:10:00,67.4,60.0,29.96,NW,319,0.0,4.0,76,0.00,,,0.01,weatherlink.com 1.10,2013-10-24 02:10:00,
2013-10-23 22:25:00,67.4,60.0,29.97,NW,318,0.0,2.0,77,0.00,,,0.01,weatherlink.com 1.10,2013-10-24 02:25:00,
2013-10-23 22:40:00,67.2,60.0,29.98,NW,315,0.0,2.0,77,0.00,,,0.01,weatherlink.com 1.10,2013-10-24 02:40:00,
2013-10-23 22:55:00,66.8,60.0,29.99,NW,315,0.0,2.0,78,0.00,,,0.01,weatherlink.com 1.10,2013-10-24 02:55:00,
2013-10-23 23:10:00,66.3,59.0,29.99,NNE,23,0.0,4.0,77,0.00,,,0.01,weatherlink.com 1.10,2013-10-24 03:10:00,
2013-10-23 23:25:00,66.4,59.0,29.99,NNE,23,0.0,1.0,76,0.00,,,0.01,weatherlink.com 1.10,2013-10-24 03:25:00,
2013-10-23 23:40:00,66.3,59.0,30.00,NNE,23,0.0,2.0,76,0.00,,,0.01,weatherlink.com 1.10,2013-10-24 03:40:00,
2013-10-23 23:55:00,66.1,58.0,30.00,NNW,327,0.0,3.0,74,0.00,,,0.01,weatherlink.com 1.10,2013-10-24 03:55:00,